Find Qianfan Jigui 01-16

NORAD ID: 60394 Int'l Des: 2024-140 Owner: YUANX Country: CN Constellation: qianfan operational
LEOCIRCULARPOLAR

实时位置

正在加载3D地球...

关于 Qianfan Jigui 01-16

正在加载描述...

即将过境

Passes for default location (London). Set your location on the main map for personalized predictions.

高度历史

Loading altitude history...

两行轨道根数

1 60394U 24140R 26107.20162742 .00000050 00000-0 58115-4 0 9992
2 60394 88.9678 286.3828 0013854 202.8921 157.1615 13.51002139 84117
Epoch: Apr 17, 2026 • Age: 9 hours

当前状态

高度 1082.5 km
速度 7.32 km/s
星下点 74.36°N, 43.21°E
发射日期 Aug 6, 2024
运行时间 1.6 years
类型 internet

技术详情

分类 Payload
质量 267.00 kg
干质量 267.00 kg
总质量 267.00 kg
长度 0.30 m
直径 3.00 m
跨度 10.00 m
形状 Box+pan
制造商 SECM
平台类型 Qianfan
阶段状态 In Orbit
所有者/国家 YUANX/CN

Most Searched